星链-32104 (STARLINK-32104 )

导读 | 豆包AI

STARLINK-32104是美国SpaceX公司星链星座的第二代卫星,于2024年5月8日发射入轨,部署在近地轨道,是星链全球宽带卫星星座的组成部分。该卫星配备激光星间链路与增强型相控阵天线,单星容量超100Gbps,可提供高速低时延互联网接入服务,助力星链实现全球覆盖,同时承担商用通信与潜在军事应用功能,设计寿命5-7年。

基本信息
目录编号:
59695
目录名称:
STARLINK-32104
国际标识:
2024-086P
轨道中心:
EARTH
卫星名称:
星链-32104
卫星全名:
星链-32104 (STARLINK-32104 )
卫星状态:
在轨 (已飞行723 天)
发射日期:
2024-05-08 UTC
国别 :
美国 (US)
星等 :
--
轨道信息
数据来源 国际轨道数据
星历时间: 2026-04-30T20:05:56+0800
15小时前
查看轨道信息
半长轴: 6861.202km
偏心率: 0.0000977
轨道倾角: 43.003°
近地点辐角 281.980°
升交点赤经 123.987°
平近点角 78.094°
近地点: 482.394km
远地点: 483.736km
周期: 94.267分钟
每日圈数: 15.275747
详细信息
固有亮度:
5
最大亮度:
1.5
卫星平台:
Starlink v2.0 mini
覆盖范围:
全球
运营商:
太空探索技术公司
运营商所在国:
美国
制造商(研发单位):
太空探索技术公司
制造商所在国:
美国
使用方式:
暂无
卫星简介
星链(Starlink)计划是由太空探索技术公司(SpaceX)提出的一个巨型低轨卫星互联网星座项目,计划在2019年至2024年间在太空搭建由约1.2万颗卫星组成的“星链”网络,其中1584颗将部署在地球上空550千米处的近地轨道,并从2020年开始工作。该卫星仍在工作。
2D轨道图
3D轨道图
轨道高度分析图
轨道倾角分析图
轨道综合分析图
查看轨道综合分析图